Date String (YYYY-MM-DD hh:mm:ss) UTC,Instrument flags,Ambient pressure (hPa),Sample flow (lpm),Bypass flow (lpm),Sample temperature (°C),Ambient temperature (°C),ASC tube jacket temperature (°C),LED temperature (°C),Box temperature (°C),Sample RH (%),Span deviation,Mass concentration (μg/m³),Mass concentration (μg/m³),Mass concentration (μg/m³)
DateTimeUTC,F1_M11,P_M11,Q1_M11,Q2_M11,T1_M11,T2_M11,T3_M11,T4_M11,T5_M11,U1_M11,ZSPAN_M11,X0_M11,X2_M11,X1_M11
2022-06-29 21:00:00,,0828.2,5.00,0.00,29.0,27.9,00.0,37.6,31.0,18.7,0000.0,0007.35,0003.76,0003.18
2022-06-29 21:01:00,,0828.3,5.00,0.00,28.9,27.2,00.0,37.6,30.8,18.7,0000.0,0007.75,0003.82,0003.19
2022-06-29 21:02:00,,0828.3,4.99,0.00,28.9,26.9,00.0,37.6,30.7,19.0,0000.0,0007.83,0003.79,0003.18
2022-06-29 21:03:00,,0828.2,5.00,0.00,28.9,26.9,00.0,37.6,30.7,19.1,0000.0,0007.77,0003.78,0003.19
2022-06-29 21:04:00,,0828.2,5.00,0.00,28.8,27.1,00.0,37.6,30.7,19.2,0000.0,0007.83,0003.82,0003.19
2022-06-29 21:05:00,,0828.3,5.00,0.00,28.9,27.3,00.0,37.6,30.8,19.1,0000.0,0007.77,0003.83,0003.20
2022-06-29 21:06:00,,0828.1,5.01,0.00,28.9,27.5,00.0,37.6,30.9,19.5,0000.0,0007.84,0003.87,0003.19
2022-06-29 21:07:00,,0828.1,4.99,0.00,28.9,27.7,00.0,37.6,30.9,19.1,0000.0,0007.88,0003.90,0003.19
2022-06-29 21:08:00,,0828.1,5.00,0.00,28.9,27.9,00.0,37.7,31.0,19.1,0000.0,0008.06,0003.94,0003.21
2022-06-29 21:09:00,,0828.1,5.01,0.00,29.0,27.8,00.0,37.7,31.0,18.4,0000.0,0008.17,0003.97,0003.22
2022-06-29 21:10:00,,0828.2,4.99,0.00,28.9,27.1,00.0,37.6,30.8,18.7,0000.0,0008.69,0003.95,0003.23
2022-06-29 21:11:00,,0828.1,5.00,0.00,28.9,26.8,00.0,37.6,30.7,19.0,0000.0,0008.86,0003.95,0003.25
2022-06-29 21:12:00,,0828.1,5.00,0.00,28.9,26.9,00.0,37.6,30.7,19.2,0000.0,0008.22,0003.88,0003.26
2022-06-29 21:13:00,,0828.1,5.00,0.00,28.8,27.1,00.0,37.6,30.7,19.5,0000.0,0008.25,0003.90,0003.28
2022-06-29 21:14:00,,0828.0,5.01,0.00,28.9,27.3,00.0,37.6,30.8,19.2,0000.0,0008.51,0003.94,0003.30
2022-06-29 21:15:00,,0828.0,5.00,0.00,28.9,27.5,00.0,37.6,30.8,19.0,0000.0,0008.52,0003.97,0003.32
2022-06-29 21:16:00,,0828.0,5.01,0.00,28.9,27.7,00.0,37.6,30.9,18.8,0000.0,0008.64,0003.96,0003.34
2022-06-29 21:17:00,,0827.9,4.99,0.00,28.9,27.9,00.0,37.7,31.0,18.7,0000.0,0009.37,0003.93,0003.37
2022-06-29 21:18:00,,0828.0,5.00,0.00,29.0,28.0,00.0,37.7,31.0,18.8,0000.0,0009.52,0003.94,0003.40
2022-06-29 21:19:00,,0827.9,5.00,0.00,29.0,27.7,00.0,37.7,31.0,19.2,0000.0,0009.57,0003.92,0003.40
2022-06-29 21:20:00,,0827.9,5.00,0.00,29.0,27.1,00.0,37.6,30.8,19.0,0000.0,0009.49,0003.91,0003.40
2022-06-29 21:21:00,,0827.9,4.99,0.00,28.9,27.0,00.0,37.6,30.7,19.0,0000.0,0008.99,0003.96,0003.41
2022-06-29 21:22:00,,0827.9,5.00,0.00,28.9,27.1,00.0,37.6,30.8,19.2,0000.0,0008.93,0003.99,0003.41
2022-06-29 21:23:00,,0827.9,5.01,0.00,28.9,27.2,00.0,37.6,30.8,19.1,0000.0,0009.22,0004.04,0003.42
2022-06-29 21:24:00,,0827.9,5.00,0.00,28.9,27.4,00.0,37.6,30.9,19.0,0000.0,0009.07,0004.05,0003.42
2022-06-29 21:25:00,,0827.8,5.00,0.00,28.9,27.6,00.0,37.7,30.9,18.7,0000.0,0009.21,0004.06,0003.43
2022-06-29 21:26:00,,0827.7,5.00,0.00,29.0,27.8,00.0,37.7,31.0,18.9,0000.0,0009.40,0004.05,0003.44
2022-06-29 21:27:00,,0827.7,5.00,0.00,29.0,28.0,00.0,37.7,31.1,18.9,0000.0,0009.86,0004.05,0003.44
2022-06-29 21:28:00,,0827.7,4.99,0.00,29.0,27.7,00.0,37.7,31.0,19.0,0000.0,0009.24,0004.02,0003.44
2022-06-29 21:29:00,,0827.7,5.01,0.00,29.0,27.1,00.0,37.7,30.8,18.8,0000.0,0009.46,0003.99,0003.43
2022-06-29 21:30:00,,0827.7,5.00,0.00,29.0,27.0,00.0,37.6,30.8,18.9,0000.0,0009.23,0003.97,0003.44
2022-06-29 21:31:00,,0827.7,5.00,0.00,28.9,27.1,00.0,37.6,30.8,19.2,0000.0,0009.17,0003.98,0003.45
2022-06-29 21:32:00,,0827.6,5.00,0.00,28.9,27.2,00.0,37.6,30.8,19.7,0000.0,0009.08,0003.94,0003.44
2022-06-29 21:33:00,,0827.6,5.00,0.00,28.9,27.4,00.0,37.7,30.9,19.8,0000.0,0009.02,0003.92,0003.43
2022-06-29 21:34:00,,0827.6,5.00,0.00,29.0,27.6,00.0,37.7,30.9,19.6,0000.0,0008.83,0003.90,0003.43
2022-06-29 21:35:00,,0827.6,5.00,0.00,29.0,27.8,00.0,37.7,31.0,19.6,0000.0,0008.84,0003.90,0003.43
2022-06-29 21:36:00,,0827.6,5.00,0.00,29.0,27.9,00.0,37.7,31.0,19.2,0000.0,0008.55,0003.92,0003.43
2022-06-29 21:37:00,,0827.7,5.00,0.00,29.0,27.3,00.0,37.7,30.8,19.3,0000.0,0008.41,0003.91,0003.43
2022-06-29 21:38:00,,0827.7,5.00,0.00,28.9,26.9,00.0,37.6,30.7,19.4,0000.0,0007.82,0003.93,0003.44
2022-06-29 21:39:00,,0827.7,5.00,0.00,28.9,26.9,00.0,37.6,30.7,19.5,0000.0,0007.45,0003.94,0003.43
2022-06-29 21:40:00,,0827.7,5.00,0.00,28.9,27.1,00.0,37.6,30.8,19.6,0000.0,0006.73,0003.93,0003.42
2022-06-29 21:41:00,,0827.7,4.99,0.00,28.9,27.3,00.0,37.7,30.8,19.4,0000.0,0006.75,0003.93,0003.40
2022-06-29 21:42:00,,0827.7,5.00,0.00,28.9,27.5,00.0,37.7,30.9,19.2,0000.0,0007.33,0003.92,0003.38
2022-06-29 21:43:00,,0827.7,5.00,0.00,29.0,27.7,00.0,37.7,31.0,19.4,0000.0,0007.39,0003.93,0003.39
2022-06-29 21:44:00,,0827.7,5.00,0.00,29.0,27.9,00.0,37.7,31.0,19.5,0000.0,0007.36,0003.92,0003.39
2022-06-29 21:45:00,,0827.8,5.01,0.00,29.0,27.7,00.0,37.7,31.0,19.4,0000.0,0007.25,0003.90,0003.38
2022-06-29 21:46:00,,0827.9,5.00,0.00,29.0,27.1,00.0,37.6,30.8,19.4,0000.0,0007.28,0003.91,0003.37
2022-06-29 21:47:00,,0827.9,5.00,0.00,28.9,26.9,00.0,37.6,30.7,19.6,0000.0,0007.57,0003.91,0003.36
2022-06-29 21:48:00,,0827.9,4.98,0.00,28.9,27.0,00.0,37.6,30.7,19.7,0000.0,0007.55,0003.87,0003.34
2022-06-29 21:49:00,,0827.9,5.01,0.00,28.9,27.2,00.0,37.6,30.8,21.3,0000.0,0007.64,0003.87,0003.34
2022-06-29 21:50:00,,0828.0,5.00,0.00,28.9,27.4,00.0,37.6,30.8,21.9,0000.0,0008.21,0003.94,0003.36
2022-06-29 21:51:00,,0827.9,5.00,0.00,28.9,27.6,00.0,37.7,30.9,22.4,0000.0,0008.69,0004.07,0003.40
2022-06-29 21:52:00,,0827.9,5.00,0.00,29.0,27.8,00.0,37.7,31.0,22.6,0000.0,0009.05,0004.12,0003.44
2022-06-29 21:53:00,,0827.9,5.00,0.00,29.0,27.9,00.0,37.7,31.0,22.7,0000.0,0009.11,0004.22,0003.48
2022-06-29 21:54:00,,0827.9,5.00,0.00,29.0,27.4,00.0,37.7,30.9,23.0,0000.0,0010.16,0004.30,0003.51
2022-06-29 21:55:00,,0827.9,5.00,0.00,28.9,26.9,00.0,37.6,30.7,23.3,0000.0,0010.85,0004.40,0003.54
2022-06-29 21:56:00,,0827.9,5.00,0.00,28.9,26.9,00.0,37.6,30.7,23.1,0000.0,0012.22,0004.54,0003.58
2022-06-29 21:57:00,,0827.9,5.00,0.00,28.9,27.0,00.0,37.6,30.7,22.2,0000.0,0012.56,0004.59,0003.60
2022-06-29 21:58:00,,0828.0,5.00,0.00,28.9,27.2,00.0,37.6,30.7,22.1,0000.0,0012.74,0004.62,0003.62
2022-06-29 21:59:00,,0828.1,4.98,0.00,28.9,27.4,00.0,37.6,30.8,22.1,0000.0,0012.91,0004.68,0003.63
